| time (UTC) | temp F | wind direction | speed MPH | gust MPH | rain 1hr in | rain 24hr in | rain mn in | humidity % | barometer mb |
| 20260505170646 | 79 | 228 | 5.0 | 13.0 | 0.00 | 0.02 | 0.02 | 46 | 1011.1 |
| 20260505170119 | 79 | 173 | 5.0 | 13.0 | 0.00 | 0.02 | 0.02 | 44 | 1011.0 |
| 20260505165841 | 79 | 250 | 4.0 | 12.0 | 0.00 | 0.02 | 0.02 | 46 | 1011.1 |
| 20260505165109 | 78 | 127 | 5.0 | 13.0 | 0.00 | 0.02 | 0.02 | 49 | 1011.2 |
| 20260505164600 | 78 | 68 | 6.0 | 14.0 | 0.00 | 0.02 | 0.02 | 48 | 1011.2 |
| 20260505164103 | 78 | 233 | 4.0 | 14.0 | 0.00 | 0.02 | 0.02 | 46 | 1011.5 |
| 20260505163538 | 78 | 66 | 3.0 | 15.0 | 0.00 | 0.02 | 0.02 | 48 | 1011.5 |
| 20260505163041 | 78 | 210 | 4.0 | 15.0 | 0.00 | 0.02 | 0.02 | 46 | 1011.5 |
| 20260505162736 | 78 | 217 | 4.0 | 11.0 | 0.00 | 0.02 | 0.02 | 47 | 1011.5 |
| 20260505162014 | 78 | 243 | 4.0 | 11.0 | 0.00 | 0.02 | 0.02 | 48 | 1011.5 |
| 20260505161516 | 77 | 236 | 5.0 | 11.0 | 0.00 | 0.02 | 0.02 | 48 | 1011.5 |
| 20260505160954 | 77 | 231 | 4.0 | 15.0 | 0.00 | 0.02 | 0.02 | 49 | 1011.5 |
| 20260505160728 | 76 | 231 | 4.0 | 9.0 | 0.00 | 0.02 | 0.02 | 49 | 1011.5 |
| 20260505153348 | 75 | 167 | 5.0 | 12.0 | 0.00 | 0.02 | 0.02 | 52 | 1011.8 |
| 20260505152824 | 75 | 226 | 4.0 | 11.0 | 0.00 | 0.02 | 0.02 | 50 | 1011.9 |
| 20260505152551 | 75 | 202 | 4.0 | 10.0 | 0.00 | 0.02 | 0.02 | 51 | 1012.0 |
| 20260505151821 | 74 | 218 | 4.0 | 10.0 | 0.00 | 0.02 | 0.02 | 51 | 1011.9 |
| 20260505151300 | 74 | 121 | 3.0 | 10.0 | 0.00 | 0.02 | 0.02 | 51 | 1012.0 |
| 20260505150801 | 74 | 229 | 4.0 | 10.0 | 0.00 | 0.02 | 0.02 | 52 | 1011.9 |
| 20260505150253 | 73 | 184 | 5.0 | 12.0 | 0.00 | 0.02 | 0.02 | 52 | 1012.0 |
| 20260505140151 | 73 | 122 | 2.0 | 9.0 | 0.00 | 0.02 | 0.02 | 50 | 1012.1 |
| 20260505124300 | 68 | 257 | 2.0 | 7.0 | 0.00 | 0.02 | 0.02 | 58 | 1011.9 |
| 20260505123800 | 68 | 282 | 1.0 | 7.0 | 0.00 | 0.02 | 0.02 | 58 | 1011.9 |
| 20260505123233 | 67 | 354 | 1.0 | 8.0 | 0.00 | 0.02 | 0.02 | 59 | 1011.9 |
| 20260505122704 | 67 | 302 | 2.0 | 8.0 | 0.00 | 0.02 | 0.02 | 59 | 1011.9 |
| 20260505122217 | 67 | 195 | 1.0 | 6.0 | 0.00 | 0.02 | 0.02 | 61 | 1011.9 |
| 20260505121640 | 66 | 136 | 1.0 | 6.0 | 0.00 | 0.02 | 0.02 | 61 | 1011.9 |
| 20260505121137 | 66 | 233 | 2.0 | 6.0 | 0.00 | 0.02 | 0.02 | 63 | 1011.9 |
| 20260505120622 | 65 | 323 | 2.0 | 6.0 | 0.00 | 0.02 | 0.02 | 63 | 1011.9 |
| 20260505120120 | 65 | 231 | 1.0 | 6.0 | 0.00 | 0.02 | 0.02 | 64 | 1011.9 |
| 20260505115825 | 65 | 269 | 1.0 | 6.0 | 0.00 | 0.02 | 0.02 | 65 | 1011.9 |
| 20260505115105 | 64 | 203 | 1.0 | 6.0 | 0.00 | 0.02 | 0.02 | 66 | 1011.9 |
| 20260505114607 | 64 | 240 | 1.0 | 8.0 | 0.00 | 0.02 | 0.02 | 66 | 1011.9 |
| 20260505114038 | 64 | 240 | 0.0 | 8.0 | 0.00 | 0.02 | 0.02 | 68 | 1011.7 |
| 20260505113550 | 63 | 255 | 0.0 | 2.0 | 0.00 | 0.02 | 0.02 | 69 | 1011.8 |
| 20260505113009 | 62 | 297 | 0.0 | 2.0 | 0.00 | 0.02 | 0.02 | 70 | 1011.8 |
| 20260505112729 | 62 | 262 | 0.0 | 3.0 | 0.00 | 0.02 | 0.02 | 71 | 1011.7 |
| 20260505112004 | 61 | 255 | 0.0 | 3.0 | 0.00 | 0.02 | 0.02 | 73 | 1011.7 |
| 20260505111501 | 61 | 218 | 0.0 | 1.0 | 0.00 | 0.02 | 0.02 | 72 | 1011.7 |
| 20260505111208 | 60 | 218 | 0.0 | 1.0 | 0.00 | 0.02 | 0.02 | 73 | 1011.6 |
| 20260505110431 | 60 | 161 | 0.0 | 0.0 | 0.00 | 0.02 | 0.02 | 74 | 1011.5 |
| 20260505101729 | 57 | 23 | 0.0 | 0.0 | 0.00 | 0.02 | 0.02 | 81 | 1011.3 |
| 20260505101228 | 57 | 15 | 0.0 | 0.0 | 0.00 | 0.02 | 0.02 | 81 | 1011.2 |
| 20260505100925 | 57 | 15 | 0.0 | 0.0 | 0.00 | 0.02 | 0.02 | 81 | 1011.3 |
| 20260505100353 | 57 | 15 | 0.0 | 0.0 | 0.00 | 0.02 | 0.02 | 82 | 1011.3 |
| 20260505095631 | 57 | 15 | 0.0 | 0.0 | 0.00 | 0.02 | 0.02 | 82 | 1011.2 |
| 20260505095104 | 57 | 15 | 0.0 | 0.0 | 0.00 | 0.02 | 0.02 | 83 | 1011.2 |
| 20260505094604 | 57 | 15 | 0.0 | 0.0 | 0.00 | 0.02 | 0.02 | 83 | 1011.0 |
| 20260505094030 | 57 | 15 | 0.0 | 0.0 | 0.00 | 0.02 | 0.02 | 84 | 1011.1 |
| 20260505093503 | 57 | 15 | 0.0 | 0.0 | 0.00 | 0.02 | 0.02 | 85 | 1010.9 |
| 20260505093444 | 57 | 15 | 0.0 | 0.0 | 0.00 | 0.02 | 0.02 | 85 | 1011.1 |
| 20260505092436 | 57 | 15 | 0.0 | 0.0 | 0.00 | 0.02 | 0.02 | 85 | 1011.0 |
| 20260505091911 | 57 | 15 | 0.0 | 0.0 | 0.00 | 0.02 | 0.02 | 86 | 1010.9 |
| 20260505091634 | 57 | 15 | 0.0 | 0.0 | 0.00 | 0.02 | 0.02 | 86 | 1011.1 |
| 20260505090911 | 57 | 15 | 0.0 | 0.0 | 0.00 | 0.02 | 0.02 | 86 | 1011.0 |
| 20260505090406 | 57 | 15 | 0.0 | 0.0 | 0.00 | 0.02 | 0.02 | 86 | 1011.0 |
| 20260505085844 | 57 | 15 | 0.0 | 0.0 | 0.00 | 0.02 | 0.02 | 86 | 1011.0 |
| 20260505085333 | 57 | 15 | 0.0 | 0.0 | 0.02 | 0.02 | 0.02 | 85 | 1011.0 |
| 20260505084830 | 57 | 15 | 0.0 | 0.0 | 0.02 | 0.02 | 0.02 | 85 | 1011.0 |
| 20260505084306 | 57 | 15 | 0.0 | 0.0 | 0.02 | 0.02 | 0.02 | 85 | 1011.0 |
| 20260505083806 | 57 | 15 | 0.0 | 0.0 | 0.02 | 0.02 | 0.02 | 84 | 1011.1 |
| 20260505083304 | 58 | 15 | 0.0 | 0.0 | 0.02 | 0.02 | 0.02 | 84 | 1011.0 |
| 20260505082803 | 58 | 15 | 0.0 | 0.0 | 0.02 | 0.02 | 0.02 | 83 | 1011.0 |
| 20260505082527 | 58 | 15 | 0.0 | 0.0 | 0.02 | 0.02 | 0.02 | 83 | 1011.1 |
| 20260505081802 | 58 | 15 | 0.0 | 0.0 | 0.02 | 0.02 | 0.02 | 82 | 1011.0 |
| 20260505081733 | 58 | 15 | 0.0 | 0.0 | 0.02 | 0.02 | 0.02 | 81 | 1011.0 |
| 20260505080730 | 59 | 15 | 0.0 | 0.0 | 0.02 | 0.02 | 0.02 | 80 | 1011.0 |
| 20260505080452 | 59 | 15 | 0.0 | 1.0 | 0.02 | 0.02 | 0.02 | 79 | 1011.0 |
| 20260505075729 | 59 | 15 | 0.0 | 1.0 | 0.02 | 0.02 | 0.02 | 79 | 1011.2 |
| 20260505075229 | 59 | 136 | 0.0 | 1.0 | 0.00 | 0.00 | 0.01 | 77 | 1011.3 |
| 20260505074704 | 59 | 283 | 0.0 | 1.0 | 0.00 | 0.00 | 0.00 | 76 | 1011.4 |
| 20260505074134 | 59 | 283 | 0.0 | 1.0 | 0.00 | 0.00 | 0.00 | 76 | 1011.3 |
| 20260505073856 | 59 | 283 | 0.0 | 1.0 | 0.00 | 0.00 | 0.00 | 76 | 1011.2 |
| 20260505073112 | 59 | 283 | 0.0 | 1.0 | 0.00 | 0.00 | 0.00 | 77 | 1011.1 |
| 20260505072611 | 59 | 163 | 0.0 | 1.0 | 0.00 | 0.00 | 0.00 | 76 | 1011.1 |
| 20260505072110 | 59 | 188 | 0.0 | 2.0 | 0.00 | 0.00 | 0.00 | 77 | 1011.1 |
| 20260505071609 | 58 | 219 | 0.0 | 2.0 | 0.00 | 0.00 | 0.00 | 77 | 1010.9 |
| 20260505071335 | 58 | 152 | 0.0 | 1.0 | 0.00 | 0.00 | 0.00 | 77 | 1011.0 |
| 20260505070545 | 58 | 236 | 0.0 | 0.0 | 0.00 | 0.00 | 0.00 | 77 | 1011.2 |
| 20260505070020 | 57 | 236 | 0.0 | 0.0 | 0.00 | 0.00 | 0.00 | 77 | 1011.2 |
| 20260505065456 | 57 | 236 | 0.0 | 0.0 | 0.00 | 0.00 | 0.00 | 77 | 1011.2 |
| 20260505064926 | 57 | 236 | 0.0 | 0.0 | 0.00 | 0.00 | 0.00 | 77 | 1011.1 |
| 20260505064421 | 56 | 236 | 0.0 | 0.0 | 0.00 | 0.00 | 0.00 | 77 | 1011.1 |
| 20260505063859 | 56 | 236 | 0.0 | 0.0 | 0.00 | 0.00 | 0.00 | 77 | 1010.9 |
| 20260505063330 | 56 | 236 | 0.0 | 0.0 | 0.00 | 0.00 | 0.00 | 77 | 1010.9 |
| 20260505062827 | 56 | 236 | 0.0 | 0.0 | 0.00 | 0.00 | 0.00 | 76 | 1010.8 |
| 20260505062530 | 56 | 236 | 0.0 | 0.0 | 0.00 | 0.00 | 0.00 | 75 | 1010.9 |
| 20260505062520 | 56 | 236 | 0.0 | 0.0 | 0.00 | 0.00 | 0.00 | 76 | 1010.9 |
| 20260505061543 | 57 | 236 | 0.0 | 0.0 | 0.00 | 0.00 | 0.00 | 74 | 1010.9 |
| 20260505060814 | 57 | 236 | 0.0 | 0.0 | 0.00 | 0.00 | 0.00 | 74 | 1010.9 |
| 20260505060311 | 57 | 236 | 0.0 | 0.0 | 0.00 | 0.00 | 0.00 | 74 | 1010.9 |
| 20260505055806 | 57 | 236 | 0.0 | 0.0 | 0.00 | 0.00 | 0.00 | 74 | 1010.9 |
| 20260505055305 | 57 | 236 | 0.0 | 0.0 | 0.00 | 0.00 | 0.00 | 73 | 1011.0 |
| 20260505055002 | 57 | 236 | 0.0 | 0.0 | 0.00 | 0.00 | 0.00 | 73 | 1011.0 |
| 20260505054209 | 57 | 236 | 0.0 | 0.0 | 0.00 | 0.00 | 0.00 | 73 | 1011.0 |
| 20260505054154 | 57 | 236 | 0.0 | 0.0 | 0.00 | 0.00 | 0.00 | 71 | 1011.0 |
| 20260505053206 | 58 | 236 | 0.0 | 0.0 | 0.00 | 0.00 | 0.00 | 71 | 1011.0 |
| 20260505052640 | 58 | 236 | 0.0 | 0.0 | 0.00 | 0.00 | 0.00 | 70 | 1011.1 |
| 20260505052115 | 58 | 236 | 0.0 | 0.0 | 0.00 | 0.00 | 0.00 | 70 | 1011.1 |
| 20260505051811 | 59 | 236 | 0.0 | 1.0 | 0.00 | 0.00 | 0.00 | 69 | 1011.1 |
| 20260505051042 | 59 | 236 | 0.0 | 1.0 | 0.00 | 0.00 | 0.00 | 69 | 1011.2 |
| 20260505050744 | 59 | 236 | 0.0 | 1.0 | 0.00 | 0.00 | 0.00 | 68 | 1011.1 |
| 20260505041749 | 61 | 211 | 0.0 | 2.0 | 0.00 | 0.00 | 0.00 | 62 | 1010.9 |
| 20260505041220 | 61 | 129 | 1.0 | 5.0 | 0.00 | 0.00 | 0.00 | 62 | 1011.0 |
| 20260505040719 | 61 | 218 | 1.0 | 5.0 | 0.00 | 0.00 | 0.00 | 61 | 1011.0 |
| 20260505040149 | 62 | 212 | 1.0 | 3.0 | 0.00 | 0.00 | 0.00 | 60 | 1011.0 |
| 20260505035648 | 62 | 168 | 1.0 | 4.0 | 0.00 | 0.00 | 0.00 | 59 | 1011.0 |
| 20260505035121 | 62 | 184 | 1.0 | 4.0 | 0.00 | 0.00 | 0.00 | 58 | 1010.9 |
| 20260505034620 | 62 | 217 | 0.0 | 3.0 | 0.00 | 0.00 | 0.00 | 58 | 1011.0 |
| 20260505034543 | 62 | 237 | 0.0 | 4.0 | 0.00 | 0.00 | 0.00 | 57 | 1010.9 |
| 20260505033810 | 61 | 165 | 0.0 | 4.0 | 0.00 | 0.00 | 0.00 | 57 | 1011.0 |
| 20260505033045 | 62 | 208 | 0.0 | 2.0 | 0.00 | 0.00 | 0.00 | 57 | 1011.0 |
| 20260505032543 | 62 | 208 | 0.0 | 2.0 | 0.00 | 0.00 | 0.00 | 56 | 1011.0 |
| 20260505032240 | 62 | 223 | 0.0 | 1.0 | 0.00 | 0.00 | 0.00 | 56 | 1011.1 |
| 20260505031511 | 62 | 224 | 0.0 | 5.0 | 0.00 | 0.00 | 0.00 | 55 | 1011.0 |
| 20260505031201 | 63 | 137 | 1.0 | 5.0 | 0.00 | 0.00 | 0.00 | 55 | 1011.0 |
| 20260505030438 | 63 | 228 | 1.0 | 6.0 | 0.00 | 0.00 | 0.00 | 55 | 1011.0 |
| 20260505025936 | 63 | 207 | 1.0 | 6.0 | 0.00 | 0.00 | 0.00 | 54 | 1010.9 |
| 20260505025408 | 63 | 224 | 1.0 | 4.0 | 0.00 | 0.00 | 0.00 | 55 | 1011.0 |
| 20260505024906 | 63 | 236 | 1.0 | 3.0 | 0.00 | 0.00 | 0.00 | 55 | 1011.0 |
| 20260505024603 | 63 | 219 | 1.0 | 3.0 | 0.00 | 0.00 | 0.00 | 55 | 1011.2 |
| 20260505023838 | 62 | 207 | 0.0 | 2.0 | 0.00 | 0.00 | 0.00 | 56 | 1011.2 |
| 20260505023537 | 62 | 200 | 0.0 | 2.0 | 0.00 | 0.00 | 0.00 | 56 | 1011.2 |
| 20260505023252 | 62 | 203 | 0.0 | 1.0 | 0.00 | 0.00 | 0.00 | 56 | 1011.3 |
| 20260505022305 | 63 | 191 | 0.0 | 3.0 | 0.00 | 0.00 | 0.00 | 55 | 1011.2 |
| 20260505021737 | 63 | 191 | 0.0 | 3.0 | 0.00 | 0.00 | 0.00 | 55 | 1011.2 |
| 20260505021235 | 63 | 227 | 0.0 | 2.0 | 0.00 | 0.00 | 0.00 | 56 | 1011.2 |
| 20260505020709 | 63 | 217 | 0.0 | 0.0 | 0.00 | 0.00 | 0.00 | 56 | 1011.2 |
| 20260505020140 | 63 | 217 | 0.0 | 0.0 | 0.00 | 0.00 | 0.00 | 55 | 1011.1 |
| 20260505015637 | 63 | 217 | 0.0 | 0.0 | 0.00 | 0.00 | 0.00 | 55 | 1011.1 |
| 20260505015136 | 64 | 217 | 0.0 | 0.0 | 0.00 | 0.00 | 0.00 | 55 | 1011.1 |
| 20260505014635 | 64 | 217 | 0.0 | 2.0 | 0.00 | 0.00 | 0.00 | 54 | 1010.9 |
| 20260505014144 | 64 | 217 | 0.0 | 2.0 | 0.00 | 0.00 | 0.00 | 53 | 1010.9 |
| 20260505013854 | 65 | 220 | 0.0 | 2.0 | 0.00 | 0.00 | 0.00 | 52 | 1011.0 |
| 20260505013116 | 65 | 207 | 0.0 | 2.0 | 0.00 | 0.00 | 0.00 | 52 | 1011.0 |
| 20260505012618 | 65 | 200 | 0.0 | 1.0 | 0.00 | 0.00 | 0.00 | 52 | 1010.9 |
| 20260505012050 | 65 | 200 | 1.0 | 3.0 | 0.00 | 0.00 | 0.00 | 52 | 1010.9 |
| 20260505011549 | 66 | 229 | 0.0 | 3.0 | 0.00 | 0.00 | 0.00 | 52 | 1010.8 |
| 20260505011028 | 66 | 212 | 0.0 | 2.0 | 0.00 | 0.00 | 0.00 | 52 | 1010.8 |
| 20260505010734 | 66 | 210 | 0.0 | 2.0 | 0.00 | 0.00 | 0.00 | 51 | 1010.6 |
| 20260505005927 | 67 | 229 | 1.0 | 4.0 | 0.00 | 0.00 | 0.00 | 50 | 1010.6 |
| 20260505005407 | 67 | 231 | 1.0 | 6.0 | 0.00 | 0.00 | 0.00 | 49 | 1010.5 |
| 20260505004907 | 67 | 209 | 2.0 | 6.0 | 0.00 | 0.00 | 0.00 | 49 | 1010.5 |
| 20260505004349 | 67 | 153 | 2.0 | 8.0 | 0.00 | 0.00 | 0.00 | 48 | 1010.4 |
| 20260505003851 | 67 | 179 | 1.0 | 5.0 | 0.00 | 0.00 | 0.00 | 48 | 1010.5 |
| 20260505003327 | 67 | 230 | 1.0 | 4.0 | 0.00 | 0.00 | 0.00 | 48 | 1010.4 |
| 20260505002812 | 68 | 221 | 1.0 | 7.0 | 0.00 | 0.00 | 0.00 | 48 | 1010.3 |
| 20260505002313 | 68 | 217 | 2.0 | 7.0 | 0.00 | 0.00 | 0.00 | 47 | 1010.4 |
| 20260505001804 | 68 | 259 | 2.0 | 6.0 | 0.00 | 0.00 | 0.00 | 46 | 1010.3 |
| 20260505001302 | 69 | 224 | 1.0 | 4.0 | 0.00 | 0.00 | 0.00 | 45 | 1010.3 |
| 20260505001029 | 69 | 227 | 1.0 | 4.0 | 0.00 | 0.00 | 0.00 | 45 | 1010.1 |
| 20260505000259 | 69 | 244 | 1.0 | 3.0 | 0.00 | 0.00 | 0.00 | 44 | 1010.1 |
| 20260505000021 | 70 | 252 | 1.0 | 6.0 | 0.00 | 0.00 | 0.00 | 42 | 1010.0 |
| 20260504235259 | 70 | 199 | 2.0 | 6.0 | 0.00 | 0.00 | 0.00 | 41 | 1010.0 |
| 20260504234736 | 70 | 233 | 1.0 | 4.0 | 0.00 | 0.00 | 0.00 | 40 | 1010.0 |
| 20260504234215 | 71 | 203 | 1.0 | 5.0 | 0.00 | 0.00 | 0.00 | 39 | 1010.0 |
| 20260504233941 | 71 | 177 | 1.0 | 5.0 | 0.00 | 0.00 | 0.00 | 38 | 1010.0 |
| 20260504233213 | 71 | 234 | 2.0 | 5.0 | 0.00 | 0.00 | 0.00 | 38 | 1010.0 |
| 20260504232650 | 72 | 84 | 2.0 | 8.0 | 0.00 | 0.00 | 0.00 | 37 | 1010.0 |
| 20260504232128 | 72 | 221 | 2.0 | 4.0 | 0.00 | 0.00 | 0.00 | 38 | 1010.0 |
| 20260504231559 | 73 | 192 | 2.0 | 4.0 | 0.00 | 0.00 | 0.00 | 37 | 1010.0 |
| 20260504231039 | 73 | 193 | 2.0 | 7.0 | 0.00 | 0.00 | 0.00 | 37 | 1009.9 |
| 20260504230514 | 73 | 184 | 2.0 | 7.0 | 0.00 | 0.00 | 0.00 | 36 | 1010.0 |
| 20260504230009 | 73 | 139 | 3.0 | 10.0 | 0.00 | 0.00 | 0.00 | 36 | 1010.0 |
| 20260504225507 | 73 | 210 | 3.0 | 10.0 | 0.00 | 0.00 | 0.00 | 36 | 1009.9 |
| 20260504224940 | 73 | 201 | 2.0 | 8.0 | 0.00 | 0.00 | 0.00 | 36 | 1009.9 |
| 20260504224706 | 73 | 180 | 1.0 | 6.0 | 0.00 | 0.00 | 0.00 | 37 | 1010.0 |
| 20260504223910 | 73 | 229 | 1.0 | 5.0 | 0.00 | 0.00 | 0.00 | 36 | 1009.9 |
| 20260504223341 | 74 | 204 | 2.0 | 8.0 | 0.00 | 0.00 | 0.00 | 35 | 1010.0 |
| 20260504222840 | 74 | 167 | 3.0 | 13.0 | 0.00 | 0.00 | 0.00 | 35 | 1010.0 |
| 20260504222313 | 74 | 198 | 2.0 | 7.0 | 0.00 | 0.00 | 0.00 | 35 | 1009.9 |
| 20260504221748 | 74 | 158 | 2.0 | 8.0 | 0.00 | 0.00 | 0.00 | 33 | 1010.0 |
| 20260504221449 | 74 | 204 | 2.0 | 8.0 | 0.00 | 0.00 | 0.00 | 33 | 1010.0 |
| 20260504220942 | 75 | 16 | 2.0 | 8.0 | 0.00 | 0.00 | 0.00 | 33 | 1010.0 |
| 20260504220152 | 74 | 141 | 2.0 | 8.0 | 0.00 | 0.00 | 0.00 | 34 | 1010.1 |
| 20260504220112 | 74 | 266 | 2.0 | 7.0 | 0.00 | 0.00 | 0.00 | 33 | 1010.1 |
| 20260504215059 | 74 | 155 | 2.0 | 11.0 | 0.00 | 0.00 | 0.00 | 33 | 1010.1 |
| 20260504214531 | 74 | 221 | 3.0 | 9.0 | 0.00 | 0.00 | 0.00 | 33 | 1010.1 |
| 20260504214031 | 74 | 143 | 3.0 | 9.0 | 0.00 | 0.00 | 0.00 | 33 | 1010.1 |
| 20260504213501 | 74 | 295 | 3.0 | 9.0 | 0.00 | 0.00 | 0.00 | 34 | 1010.3 |
| 20260504213001 | 74 | 317 | 2.0 | 9.0 | 0.00 | 0.00 | 0.00 | 33 | 1010.3 |
| 20260504212431 | 74 | 236 | 3.0 | 9.0 | 0.00 | 0.00 | 0.00 | 35 | 1010.1 |
| 20260504211930 | 74 | 222 | 3.0 | 13.0 | 0.00 | 0.00 | 0.00 | 35 | 1010.3 |
| 20260504211401 | 74 | 289 | 2.0 | 7.0 | 0.00 | 0.00 | 0.00 | 33 | 1010.3 |
| 20260504210900 | 75 | 222 | 2.0 | 10.0 | 0.00 | 0.00 | 0.00 | 33 | 1010.3 |
| 20260504210618 | 74 | 208 | 2.0 | 10.0 | 0.00 | 0.00 | 0.00 | 34 | 1010.1 |
| 20260504205831 | 74 | 312 | 2.0 | 10.0 | 0.00 | 0.00 | 0.00 | 33 | 1010.0 |
| 20260504205329 | 74 | 193 | 2.0 | 10.0 | 0.00 | 0.00 | 0.00 | 34 | 1010.0 |
| 20260504205035 | 74 | 201 | 2.0 | 6.0 | 0.00 | 0.00 | 0.00 | 33 | 1010.3 |
| 20260504204259 | 74 | 219 | 3.0 | 10.0 | 0.00 | 0.00 | 0.00 | 32 | 1010.4 |
| 20260504203731 | 74 | 234 | 3.0 | 10.0 | 0.00 | 0.00 | 0.00 | 32 | 1010.4 |
| 20260504203228 | 74 | 283 | 2.0 | 8.0 | 0.00 | 0.00 | 0.00 | 32 | 1010.5 |
| 20260504202702 | 74 | 316 | 3.0 | 10.0 | 0.00 | 0.00 | 0.00 | 32 | 1010.4 |
| 20260504202133 | 74 | 160 | 4.0 | 10.0 | 0.00 | 0.00 | 0.00 | 33 | 1010.5 |
| 20260504201634 | 74 | 321 | 3.0 | 9.0 | 0.00 | 0.00 | 0.00 | 32 | 1010.7 |
| 20260504201135 | 74 | 269 | 3.0 | 11.0 | 0.00 | 0.00 | 0.00 | 32 | 1010.6 |
| 20260504200635 | 74 | 231 | 4.0 | 11.0 | 0.00 | 0.00 | 0.00 | 32 | 1010.7 |
| 20260504200133 | 74 | 288 | 3.0 | 13.0 | 0.00 | 0.00 | 0.00 | 34 | 1010.8 |
| 20260504195904 | 73 | 245 | 4.0 | 13.0 | 0.00 | 0.00 | 0.00 | 34 | 1010.8 |
| 20260504195109 | 73 | 175 | 4.0 | 12.0 | 0.00 | 0.00 | 0.00 | 33 | 1010.9 |
| 20260504194606 | 74 | 179 | 3.0 | 12.0 | 0.00 | 0.00 | 0.00 | 32 | 1010.9 |
| 20260504194038 | 74 | 1 | 3.0 | 12.0 | 0.00 | 0.00 | 0.00 | 32 | 1011.0 |
| 20260504193757 | 74 | 197 | 2.0 | 12.0 | 0.00 | 0.00 | 0.00 | 33 | 1011.0 |
| 20260504193235 | 74 | 240 | 2.0 | 9.0 | 0.00 | 0.00 | 0.00 | 33 | 1011.0 |
| 20260504192507 | 73 | 232 | 3.0 | 9.0 | 0.00 | 0.00 | 0.00 | 33 | 1011.2 |
| 20260504191938 | 73 | 338 | 3.0 | 9.0 | 0.00 | 0.00 | 0.00 | 32 | 1011.4 |
| 20260504191436 | 73 | 75 | 3.0 | 6.0 | 0.00 | 0.00 | 0.00 | 33 | 1011.4 |
| 20260504190911 | 73 | 224 | 3.0 | 10.0 | 0.00 | 0.00 | 0.00 | 34 | 1011.4 |
| 20260504190606 | 73 | 150 | 2.0 | 8.0 | 0.00 | 0.00 | 0.00 | 35 | 1011.4 |
| 20260504185842 | 73 | 234 | 3.0 | 8.0 | 0.00 | 0.00 | 0.00 | 33 | 1011.4 |
| 20260504185317 | 73 | 244 | 3.0 | 8.0 | 0.00 | 0.00 | 0.00 | 32 | 1011.5 |
| 20260504184751 | 73 | 239 | 3.0 | 8.0 | 0.00 | 0.00 | 0.00 | 33 | 1011.5 |
| 20260504184221 | 73 | 335 | 2.0 | 7.0 | 0.00 | 0.00 | 0.00 | 32 | 1011.6 |
| 20260504183721 | 73 | 276 | 2.0 | 8.0 | 0.00 | 0.00 | 0.00 | 32 | 1011.7 |
| 20260504183154 | 73 | 245 | 2.0 | 8.0 | 0.00 | 0.00 | 0.00 | 34 | 1011.7 |
| 20260504182625 | 72 | 236 | 2.0 | 10.0 | 0.00 | 0.00 | 0.00 | 35 | 1011.8 |
| 20260504182101 | 73 | 174 | 3.0 | 11.0 | 0.00 | 0.00 | 0.00 | 33 | 1011.9 |
| 20260504181557 | 72 | 217 | 3.0 | 11.0 | 0.00 | 0.00 | 0.00 | 31 | 1012.0 |
| 20260504181053 | 73 | 275 | 2.0 | 7.0 | 0.00 | 0.00 | 0.00 | 33 | 1012.1 |
| 20260504180751 | 73 | 204 | 3.0 | 7.0 | 0.00 | 0.00 | 0.00 | 34 | 1012.2 |
| 20260504180028 | 72 | 196 | 3.0 | 11.0 | 0.00 | 0.00 | 0.00 | 35 | 1012.2 |
| 20260504175525 | 72 | 216 | 3.0 | 11.0 | 0.00 | 0.00 | 0.00 | 32 | 1012.2 |
| 20260504175026 | 73 | 139 | 2.0 | 7.0 | 0.00 | 0.00 | 0.00 | 32 | 1012.2 |
| 20260504174459 | 73 | 13 | 2.0 | 5.0 | 0.00 | 0.00 | 0.00 | 35 | 1012.4 |
| 20260504173958 | 72 | 303 | 3.0 | 11.0 | 0.00 | 0.00 | 0.00 | 33 | 1012.3 |
| 20260504173432 | 72 | 176 | 3.0 | 11.0 | 0.00 | 0.00 | 0.00 | 32 | 1012.4 |
| 20260504172931 | 72 | 291 | 3.0 | 9.0 | 0.00 | 0.00 | 0.00 | 32 | 1012.6 |
| 20260504172651 | 72 | 212 | 2.0 | 8.0 | 0.00 | 0.00 | 0.00 | 32 | 1012.6 |
| 20260504171940 | 72 | 311 | 2.0 | 6.0 | 0.00 | 0.00 | 0.00 | 33 | 1012.7 |
| 20260504171420 | 72 | 323 | 2.0 | 5.0 | 0.00 | 0.00 | 0.00 | 33 | 1012.8 |